Location: Rotheul
(50.2849°N, 11.2349°E)
Time: 03:37:16
(UTC+02:00)

ISS - Pass Details

Date: 21 May 2018
Orbit: 402 x 407 km, 51.6° (Epoch: 23 May)

Event Time Altitude Azimuth Distance (km) Brightness Sun altitude
Rises 03:56:27 0° 287° (WNW) 2,320 -0.2 -10.7°
Reaches altitude 10° 03:58:37 10° 279° (W) 1,458 -1.3 -10.5°
Maximum altitude 04:01:41 38° 209° (SSW) 626 -3.4 -10.2°
Drops below altitude 10° 04:04:44 10° 139° (SE) 1,452 -1.1 -9.9°
Sets 04:06:53 0° 131° (SE) 2,308 0.0 -9.7°
